Location: Newark
(55.7167°N, 12.5667°E)
Time: 12:51:26
(UTC+00:00)

N. Korean satellite - Pass Details

Date: 17 December 2019
Orbit: 454 x 507 km, 97.2° (Epoch: 24 January)

Event Time Altitude Azimuth Distance (km) Brightness Sun altitude
Rises 06:39:44 0° 3° (N) 2,544 9.9 -6.9°
Reaches altitude 10° 06:42:23 10° 341° (NNW) 1,649 8.8 -6.6°
Maximum altitude 06:44:37 16° 302° (WNW) 1,303 8.1 -6.4°
Drops below altitude 10° 06:46:49 10° 263° (W) 1,624 8.8 -6.1°
Sets 06:49:25 0° 241° (WSW) 2,486 9.9 -5.8°
